User: anonymous   Login
Location: *
(50.3194°N, 7.1067°E)
Time: 23:08:15
(UTC+00:00)
Language:

Cosmos 2082 - Orbit

View from above orbital plane
View from above orbital plane
View from above satellite
View from above satellite

Ground track
Ground track

The orbit data is extracted from the following two-line orbital elements,

1 20624U 90046A   19318.85509272 +.00000135 +00000-0 +95371-4 0  9991
2 20624 071.0377 171.2243 0013465 129.5135 230.7180 14.14273154521489
Epoch (UTC): 14 November 2019 20:31:20
Eccentricity: 0.0013465
inclination: 71.0377°
perigee height: 835 km
apogee height: 854 km
right ascension of ascending node: 171.2243°
argument of perigee: 129.5135°
revolutions per day: 14.14273154
mean anomaly at epoch: 230.7180°
orbit number at epoch: 52148

The dashed part of the orbit path shows where the satellite is in the earth's shadow,  

DLR